Dewpoint
27 28 28 27 27 27 27 26 26 26 27 28 28 30 30 34 34 31 38 44 42 33 26 26 30 40 41 26 27 38 37 34 38 46 41 41 44 50 53 60 63 63 62 65 66 65 64 63 63 63 62 63 64 66 65 65 64 65 67 68 69 68 69 70 71 71 71 71 72 72 72 73 73 72 71 71 71 71 72 71 70 70 70 70 71 72 72
27 27 27 28 28 28 27 27 27 27 26 27 28 29 31 32 37 38 38 40 38 33 28 40 44 49 48 42 43 44 44 40 52 48 42 33 35 43 50 56 59 63 62 64 66 67 67 64 64 62 63 65 64 64 64 64 65 66 68 68 69 68 69 70 72 72 72 73 73 73 73 74 74 73 71 71 70 71 71 71 72 72 72 71 71 71 72
28 27 28 28 28 27 26 27 27 27 27 27 30 35 40 40 37 36 36 39 39 37 53 57 55 58 61 56 49 55 63 63 61 60 54 49 41 36 48 57 58 61 62 63 66 67 67 66 65 64 64 65 64 63 64 64 65 65 66 69 68 68 69 70 72 72 73 73 74 73 73 74 74 73 72 72 72 72 72 72 72 73 72 71 71 71 71
26 27 27 27 27 27 26 27 27 27 27 32 42 46 47 45 43 41 38 38 38 51 57 58 59 60 62 62 63 62 63 63 64 64 62 58 52 46 40 46 55 60 61 63 64 64 63 63 64 64 66 64 63 62 64 64 64 65 66 67 67 69 69 71 72 72 72 73 73 73 74 73 74 74 73 72 72 73 72 72 73 72 72 72 72 71 71
27 28 29 28 27 28 27 27 28 29 33 42 45 49 52 51 51 47 38 35 54 54 58 58 60 61 62 62 62 62 63 64 64 64 65 64 59 51 48 46 54 56 57 60 64 62 62 62 63 63 65 63 64 64 65 64 65 65 65 66 68 70 70 71 73 72 73 73 73 73 73 73 73 74 73 73 73 72 72 72 72 73 73 72 72 72 72
27 27 28 29 30 24 24 39 31 30 37 44 44 46 49 49 49 49 50 51 52 53 55 59 60 60 62 63 64 64 64 64 64 64 65 66 64 58 50 44 43 54 60 60 62 62 64 63 62 63 64 63 64 64 65 65 65 66 67 67 68 69 70 71 72 72 73 73 73 73 73 73 73 73 73 73 72 71 71 72 73 73 72 72 73 73 73
27 29 30 28 25 25 42 43 44 44 45 46 47 48 46 46 46 46 47 48 49 51 53 57 60 61 62 62 63 63 64 64 64 64 64 66 66 61 53 51 47 56 62 63 64 64 62 62 63 63 63 64 65 65 66 66 66 69 68 68 68 69 70 71 72 72 72 73 73 73 73 73 73 73 73 73 72 72 71 72 72 73 72 72 72 73 73
30 29 28 25 25 36 41 42 43 45 44 45 48 49 46 44 44 45 46 47 48 50 50 52 59 61 61 61 63 64 64 64 65 64 65 65 66 64 54 53 56 61 58 61 62 63 63 62 62 63 63 63 64 64 65 65 66 67 69 69 69 69 71 70 71 72 72 73 73 73 73 73 73 73 73 73 73 73 72 72 72 72 73 72 72 73 73
28 28 26 26 33 36 40 42 42 42 44 45 46 47 48 45 44 45 46 47 48 48 50 51 55 60 61 61 62 63 64 64 65 66 66 65 67 65 60 55 57 64 62 63 61 65 63 62 62 62 62 63 63 63 64 65 67 66 67 70 70 70 70 70 71 72 72 72 73 73 73 73 73 73 73 73 73 74 73 72 72 72 72 72 73 72 73
31 28 26 27 27 30 40 42 42 43 44 45 46 47 46 47 45 46 46 46 47 48 49 51 54 60 61 58 60 62 63 64 65 66 66 67 67 62 57 59 62 64 64 64 66 62 63 63 62 63 63 63 64 65 64 65 66 66 67 69 70 71 71 71 72 72 73 73 73 73 73 73 73 73 73 73 73 74 73 72 72 72 72 72 72 72 72
32 29 27 26 24 31 42 42 43 44 45 45 47 46 46 48 46 46 46 46 47 47 49 50 55 60 57 58 59 62 63 64 67 66 67 67 67 64 61 59 60 60 65 64 63 64 64 62 63 65 64 64 64 66 66 65 66 66 68 70 71 72 71 72 73 73 73 73 73 73 73 73 73 73 73 74 73 74 73 73 72 73 72 72 72 73 71
30 29 27 26 31 29 40 43 43 43 45 47 47 41 43 46 45 46 45 46 46 47 48 50 55 58 57 58 60 63 64 67 66 67 67 67 67 67 62 61 62 66 69 68 64 63 62 64 65 66 64 65 67 67 66 65 65 67 69 71 72 71 71 73 73 74 73 74 74 73 73 74 74 74 74 74 74 74 73 72 72 72 72 72 72 72 71
29 31 28 28 30 38 44 43 44 45 45 47 43 38 43 46 46 46 45 45 49 49 48 49 49 53 56 61 63 65 66 66 66 67 67 67 68 68 68 67 67 66 66 64 62 61 65 68 64 64 64 65 67 69 67 67 67 67 69 72 73 73 73 72 73 74 74 74 73 73 74 74 74 74 74 74 73 73 72 71 72 72 72 72 71 72 72
28 28 28 28 31 41 43 44 46 46 45 42 42 44 46 47 46 46 46 46 48 49 49 49 51 53 54 57 62 64 64 65 66 66 67 67 68 68 70 71 70 64 62 65 63 62 68 65 64 64 67 69 71 71 69 68 69 68 71 73 73 74 74 73 73 74 74 75 74 73 74 74 74 74 74 73 73 73 72 72 73 73 73 73 72 72 73
32 31 29 28 26 39 43 45 45 44 42 39 42 44 45 46 46 46 45 46 48 48 48 48 49 50 50 53 55 61 63 64 65 66 66 67 67 67 68 69 69 69 68 65 63 65 64 64 65 66 66 70 70 71 70 71 69 71 73 72 74 74 74 74 75 75 75 75 74 72 73 74 74 74 74 74 74 74 74 73 73 73 74 74 73 72 73
32 31 29 30 38 42 45 44 40 41 43 44 44 44 43 45 47 45 45 46 47 48 49 49 49 49 49 51 53 58 63 64 65 66 66 67 67 67 67 67 68 69 70 70 69 67 64 66 67 67 69 72 72 71 72 76 74 74 75 75 75 74 74 74 74 75 75 73 73 73 74 74 74 74 74 74 74 75 75 74 73 73 73 73 73 72 72
35 35 38 40 42 42 46 45 45 45 45 45 44 44 44 45 46 47 46 47 47 48 49 50 49 49 49 50 53 55 62 63 64 65 66 66 66 66 67 67 68 68 69 70 69 70 71 72 72 73 73 72 72 73 76 76 77 76 76 75 74 74 73 73 75 74 75 74 74 74 74 74 75 74 75 75 74 75 75 74 74 73 74 73 73 72 72
41 42 43 41 39 39 43 45 45 45 44 44 45 44 44 46 47 48 47 47 47 47 49 50 50 51 50 50 52 53 58 63 64 65 66 66 67 67 67 67 67 68 68 68 69 70 70 72 73 75 74 73 74 75 75 76 77 77 77 76 75 74 74 74 74 74 74 74 74 74 74 74 74 74 74 74 74 75 74 74 74 74 73 73 73 73 72
37 34 40 39 39 39 44 45 46 47 47 47 46 45 45 46 47 47 48 48 47 46 48 51 51 51 51 50 50 52 55 58 63 65 65 66 67 67 67 67 68 67 67 67 68 69 69 70 70 71 72 73 74 75 75 75 76 77 77 77 77 76 75 73 74 74 74 73 73 73 74 74 74 75 74 75 75 75 75 74 74 73 73 73 73 72 71
37 35 39 39 39 40 46 47 47 46 46 47 47 46 47 47 47 48 48 48 46 45 46 49 51 52 52 50 49 51 53 55 59 64 65 66 67 67 68 68 68 68 68 68 68 68 69 69 70 70 70 70 71 72 72 74 76 77 77 77 77 77 76 75 74 75 74 74 74 73 75 75 74 74 75 75 74 74 74 74 74 73 73 73 72 72 72
39 38 40 39 39 44 45 45 44 45 47 47 45 46 46 46 47 48 48 48 48 46 46 48 50 50 49 49 50 51 51 53 57 63 65 66 67 67 67 67 67 67 67 67 68 68 68 69 70 70 70 71 71 72 73 74 76 77 77 77 77 78 78 77 76 75 75 75 74 74 75 77 67 63 70 76 75 75 75 75 74 73 73 73 73 72 72
34 35 38 40 36 36 38 39 41 42 43 45 45 46 46 46 47 48 47 48 48 47 46 47 48 48 48 48 50 49 50 51 55 62 64 66 66 67 68 68 68 67 67 68 67 67 68 69 69 69 70 71 71 72 73 73 75 77 77 77 77 77 77 77 77 75 75 73 74 73 73 70 66 60 50 44 50 65 74 62 60 58 62 75 76 74 74
35 39 41 42 42 41 40 41 41 42 44 45 46 46 46 47 46 48 48 48 48 47 46 48 49 49 48 48 48 48 48 49 53 61 63 65 66 66 67 67 67 67 67 68 67 67 67 68 68 68 69 69 71 71 73 74 75 76 77 76 76 76 77 76 75 76 75 75 76 75 73 70 68 67 65 61 44 41 47 50 48 52 54 56 57 66 74
41 42 42 43 43 41 42 43 43 44 45 45 46 47 47 47 48 48 48 49 48 48 48 48 50 50 48 49 47 47 48 48 51 59 63 64 65 66 66 65 66 66 66 66 66 67 67 67 67 68 68 68 69 71 72 73 75 75 76 77 76 76 76 76 75 76 76 75 74 73 71 71 70 69 69 68 65 49 42 44 44 41 41 42 48 53 58
41 43 44 44 44 43 45 44 44 46 47 46 48 48 48 48 48 48 48 49 49 49 48 48 49 49 49 51 50 48 48 47 50 59 62 63 62 63 64 64 64 64 65 65 66 66 66 66 66 67 67 67 68 69 72 73 75 76 76 76 76 76 76 75 75 75 74 74 73 72 71 71 71 71 70 69 68 64 58 45 43 42 42 41 40 41 49
44 44 44 44 43 43 45 45 45 45 47 46 48 49 49 49 49 49 49 50 50 51 50 50 50 49 50 51 51 49 48 48 51 57 61 60 59 60 61 61 62 64 64 64 65 65 65 65 66 66 66 65 66 68 70 72 73 75 75 76 76 76 75 75 75 75 74 73 72 72 71 71 71 71 71 71 69 67 65 64 64 56 47 44 42 44 41
44 45 44 42 40 41 42 44 45 48 48 48 47 48 48 49 49 50 50 49 50 50 51 52 49 51 49 50 51 52 50 49 49 53 59 59 58 58 59 61 61 62 62 63 63 64 64 64 65 66 66 65 66 67 68 71 73 74 75 74 75 74 74 75 75 74 74 73 73 72 72 72 71 71 71 71 69 69 69 69 68 65 60 55 47 42 48
43 44 45 41 41 42 44 45 46 46 47 47 47 48 49 50 49 48 48 49 49 49 50 50 50 51 50 50 51 52 52 51 51 51 58 58 57 57 59 61 62 62 61 62 62 63 63 64 64 65 65 65 66 67 68 70 72 73 73 73 73 73 73 73 73 72 72 73 72 72 72 72 72 70 70 69 70 70 68 66 63 59 56 54 54 50 46
41 42 44 45 44 45 46 46 44 44 45 46 48 49 48 47 47 47 48 49 50 50 50 50 51 51 50 50 51 52 52 51 52 52 56 58 58 58 59 60 61 61 62 61 61 61 63 63 64 64 64 65 66 67 68 70 71 71 71 70 70 71 70 70 70 70 70 71 71 71 68 69 69 69 68 67 66 65 65 62 60 59 57 58 59 59 57
41 41 42 41 41 41 42 42 43 43 44 45 46 47 47 47 47 47 47 48 48 48 49 49 49 50 51 51 51 52 52 53 53 53 57 57 58 59 59 59 60 60 60 60 61 61 62 63 63 63 63 64 64 67 66 68 68 69 69 69 69 69 69 69 69 69 69 68 65 65 67 67 67 67 65 65 64 62 61 61 60 60 60 60 59 60 59
41 41 41 41 41 41 40 41 42 43 43 44 45 46 47 47 47 47 47 48 48 48 49 49 49 49 50 50 51 52 53 53 54 54 56 58 58 58 58 58 59 59 58 59 60 60 61 62 62 62 63 65 66 66 67 68 67 67 67 66 66 62 61 63 65 67 67 67 67 66 65 65 65 64 63 63 63 62 61 61 60 59 59 59 59 59 59
40 40 41 41 41 40 40 41 41 42 42 43 44 45 47 48 48 47 47 47 48 49 49 49 49 49 50 51 51 52 53 54 54 54 56 58 58 58 58 57 57 58 58 58 59 59 61 62 62 62 64 65 65 65 66 67 67 66 66 66 66 66 64 62 65 65 66 66 66 65 65 64 64 64 63 62 60 60 59 59 58 59 59 58 58 59 61
41 40 40 41 41 41 40 41 41 41 42 42 44 45 47 48 49 49 49 48 46 47 48 49 50 50 51 51 51 51 52 53 54 55 56 58 58 58 58 58 58 58 58 58 59 60 60 60 61 62 63 63 64 64 64 65 66 65 65 65 65 65 64 63 63 65 66 65 64 64 64 63 63 62 61 61 60 61 61 61 61 61 60 59 58 58 58
41 41 41 42 42 41 41 42 42 42 42 43 43 44 46 47 49 50 50 50 48 46 46 47 48 50 51 51 51 52 52 53 54 57 57 57 57 57 57 58 58 58 59 59 60 59 60 62 62 63 62 62 62 63 64 64 64 65 65 64 64 63 64 64 65 64 64 63 63 63 63 62 61 61 61 61 60 60 59 58 58 57 57 56 55 55 51
42 42 42 41 41 42 42 42 42 43 43 42 43 44 45 46 48 49 52 52 51 49 48 47 48 48 49 50 51 52 53 54 56 56 56 56 56 56 57 58 58 59 59 58 58 59 59 60 61 62 62 62 60 60 62 63 63 63 64 63 63 62 62 63 63 62 62 62 62 61 60 60 60 61 60 59 58 59 59 59 58 58 57 56 55 56 53
41 41 41 41 42 42 42 42 42 42 42 42 43 44 44 45 46 48 49 51 51 50 49 48 49 49 48 50 52 54 56 55 54 54 54 54 55 56 56 56 56 57 58 58 58 59 59 60 61 61 61 60 59 59 60 62 62 62 62 61 61 61 61 61 61 61 61 60 59 59 59 59 58 58 57 57 57 57 57 57 56 56 55 55 54 54 53
42 41 41 41 42 42 42 42 42 42 42 42 43 43 44 44 45 46 48 49 52 51 51 50 50 53 54 54 53 53 54 54 54 54 54 54 55 55 55 54 54 55 56 56 57 58 59 59 60 60 60 60 60 61 60 60 61 61 61 60 60 60 61 59 59 58 58 58 58 57 57 57 56 56 57 55 55 55 54 54 54 54 53 53 53 52 51
43 42 42 41 42 42 42 42 42 42 41 42 42 44 45 44 44 44 45 47 49 52 54 54 54 54 53 53 52 51 51 52 53 53 53 53 54 53 53 53 53 54 54 54 56 57 58 58 59 59 60 59 59 58 59 59 59 59 58 58 59 58 58 57 57 57 56 56 56 56 55 55 54 53 53 53 53 53 53 52 52 52 51 51 51 51 50
43 43 43 41 41 42 42 42 42 42 42 42 42 42 44 45 45 43 43 44 47 50 50 51 51 50 50 50 50 50 50 51 51 52 52 52 52 52 51 52 53 54 55 57 57 58 58 58 58 58 59 59 59 60 59 59 59 59 59 59 59 57 56 56 55 55 55 55 54 54 53 53 53 52 52 52 51 51 51 50 50 50 50 49 49 49 49
43 43 43 42 41 41 41 41 41 42 42 42 42 42 43 44 44 43 42 43 45 48 48 48 48 48 48 48 49 49 50 50 51 51 51 52 52 52 52 51 52 53 54 56 57 57 57 56 56 56 57 57 58 58 58 58 58 57 57 56 56 55 55 55 54 53 53 53 53 53 52 51 51 50 50 50 49 49 49 49 48 48 48 47 47 47 47
43 43 43 43 42 41 41 41 41 42 42 42 42 43 43 43 44 43 43 43 44 45 46 47 46 47 47 48 48 48 49 49 50 50 50 50 50 50 49 49 51 52 52 53 54 55 56 55 56 55 56 56 57 56 57 56 56 55 55 54 55 54 53 53 52 52 52 51 51 50 49 49 48 48 48 47 47 47 47 46 46 46 46 46 45 45 45
44 44 43 43 43 43 42 41 41 41 41 42 43 44 43 43 43 43 44 44 43 43 44 45 48 46 46 46 47 48 48 49 49 49 49 49 48 48 47 49 52 52 54 54 54 53 53 53 54 54 55 55 55 54 54 53 52 52 52 52 52 52 51 50 50 50 50 50 49 48 48 47 47 46 46 46 45 46 45 45 45 45 45 45 45 45 45
45 44 44 43 43 43 43 43 42 41 42 42 43 43 43 43 43 43 44 44 44 43 43 43 45 45 46 45 45 45 47 48 49 49 49 50 50 50 49 49 51 52 54 54 54 53 53 53 53 53 53 52 52 52 50 49 48 48 47 47 48 48 46 45 45 45 45 43 43 43 44 43 42 42 42 42 43 43 43 43 43 43 44 43 43 43 43
46 45 45 44 43 44 44 43 42 42 40 42 43 43 43 42 43 43 43 43 42 43 43 43 43 44 44 45 45 45 45 46 47 49 49 49 49 50 52 52 52 52 52 53 53 53 54 54 54 53 52 51 50 50 49 48 47 46 45 45 45 45 45 44 44 45 44 45 45 45 43 44 43 44 44 43 41 41 43 43 41 41 41 41 41 41 41
46 46 46 45 45 43 43 42 42 44 43 42 42 42 42 41 42 42 42 42 43 43 44 43 43 44 44 45 44 44 45 46 47 47 46 46 46 47 51 52 52 52 52 51 52 52 52 52 51 51 50 50 49 49 48 46 47 47 46 47 47 47 47 46 45 45 45 46 46 47 47 44 41 42 42 42 41 40 39 38 37 38 38 38 38 39 39
42 44 45 44 45 44 43 44 44 44 43 43 42 41 41 42 41 42 42 42 43 43 44 43 43 43 44 45 46 45 44 45 46 47 48 48 47 48 50 51 51 50 50 50 50 50 51 50 50 49 49 49 49 50 49 49 48 48 48 48 48 46 46 47 46 42 42 43 42 42 43 43 41 38 37 37 37 37 37 38 36 35 35 36 37 37 37
39 39 42 44 46 45 44 44 44 44 42 41 42 41 42 42 42 42 42 43 43 43 44 44 44 44 44 45 45 45 45 44 44 46 47 48 49 48 49 50 50 50 50 50 50 49 50 50 50 47 48 48 49 48 47 47 46 44 44 45 43 41 40 39 39 38 38 37 39 39 39 38 36 36 37 37 36 36 36 36 34 34 34 35 35 36 36
38 38 38 41 44 46 44 43 44 42 42 43 43 43 42 43 42 42 41 41 42 43 43 43 44 44 44 44 45 46 47 46 43 44 47 46 46 47 47 47 47 48 49 49 49 48 47 47 47 47 46 47 47 47 47 46 46 46 45 43 41 40 42 40 39 37 36 35 35 36 34 34 34 34 35 35 36 37 37 36 35 35 34 33 33 33 34
39 39 39 39 39 42 44 45 44 43 43 43 43 44 42 43 43 44 44 43 42 42 41 41 41 42 42 44 44 44 47 47 46 45 48 47 46 46 46 48 48 48 49 48 47 48 48 47 46 46 46 46 44 43 43 43 43 44 44 44 43 42 42 40 39 38 36 36 35 35 35 34 34 35 34 34 35 35 37 37 36 36 36 36 35 36 35
38 38 39 39 39 40 40 41 43 42 45 44 45 45 44 43 41 42 44 43 44 42 40 39 40 42 42 41 42 45 47 46 46 47 48 48 47 47 48 47 47 48 48 48 48 48 47 46 46 46 46 44 43 43 43 43 42 44 42 43 43 42 42 42 43 42 41 40 39 38 38 37 36 37 37 35 35 34 34 35 37 38 39 37 36 35 35
39 38 38 40 39 41 42 42 43 45 43 44 44 45 43 42 41 41 40 41 43 43 41 41 42 42 41 41 41 42 45 46 47 46 47 48 48 48 48 48 47 47 47 46 47 46 46 46 46 46 45 43 42 43 43 43 42 42 43 42 42 42 41 41 41 40 40 40 40 40 40 39 39 38 37 37 36 36 36 36 36 36 36 35 36 37 36
39 40 41 39 39 40 40 41 44 45 47 43 42 44 41 39 38 38 38 40 39 40 41 42 41 42 42 41 41 40 42 42 45 47 47 48 47 47 48 47 48 47 46 46 46 46 46 46 46 45 44 43 43 42 43 43 42 41 41 42 41 40 42 41 41 40 40 40 40 39 40 39 38 38 38 37 37 37 37 37 37 37 37 37 38 38 38